EW9536 Weather Reports


time (UTC)temp
F
wind
direction
speed
knots
gust
knots
rain 1hr
in
rain 24hr
in
rain mn
in
humidity
%
barometer
mb
20260502160518 66 135 6.1 11.3 0.00 0.01 0.01 59 1019.4
20260502151518 67 135 5.2 10.4 0.00 0.01 0.01 53 1019.8
20260502150538 67 158 6.1 12.2 0.00 0.01 0.01 53 1019.8
20260502130538 67 135 5.2 8.7 0.00 0.01 0.01 58 1021.2
20260502123517 68 135 7.0 13.0 0.00 0.01 0.01 58 1021.1
20260502122517 67 135 5.2 11.3 0.00 0.01 0.01 58 1021.3
20260502121538 67 135 7.0 11.3 0.00 0.01 0.01 59 1021.4
20260502120517 67 135 4.3 9.6 0.00 0.01 0.01 60 1021.6
20260502115517 67 135 6.1 10.4 0.00 0.01 0.01 60 1021.5
20260502114517 67 135 5.2 11.3 0.00 0.01 0.01 61 1021.7
20260502113517 68 135 5.2 9.6 0.00 0.01 0.01 61 1021.7
20260502112517 68 113 4.3 8.7 0.00 0.01 0.01 62 1021.7
20260502111517 67 113 5.2 9.6 0.00 0.01 0.01 64 1021.8
20260502110517 66 113 5.2 9.6 0.00 0.01 0.01 66 1022.1
20260502105518 65 90 3.5 9.6 0.00 0.01 0.01 66 1022.0
20260502104537 65 113 4.3 7.8 0.00 0.01 0.01 67 1022.0
20260502103517 64 113 5.2 9.6 0.00 0.01 0.01 67 1022.1
20260502102517 64 135 4.3 8.7 0.00 0.01 0.01 68 1022.1
20260502101517 64 113 4.3 7.8 0.00 0.01 0.01 68 1022.2
20260502100517 64 68 4.3 10.4 0.00 0.01 0.01 71 1022.4
20260502091517 63 113 4.3 7.8 0.00 0.01 0.01 76 1022.7
20260502090517 62 135 3.5 7.8 0.00 0.01 0.01 77 1022.6
20260502071516 60 113 2.6 5.2 0.00 0.01 0.01 87 1022.9
20260502070537 60 68 0.9 3.5 0.00 0.01 0.01 87 1022.8
20260502065536 60 113 1.7 3.5 0.00 0.01 0.01 87 1023.0
20260502064517 60 135 1.7 5.2 0.00 0.01 0.01 86 1023.0
20260502063517 60 113 1.7 2.6 0.00 0.01 0.01 87 1022.9
20260502062516 60 68 1.7 2.6 0.00 0.01 0.01 87 1022.9
20260502061516 60 45 0.9 2.6 0.00 0.01 0.01 88 1022.9
20260502060516 60 0.0 1.7 0.00 0.01 0.01 88 1022.7
20260502055517 59 90 0.9 1.7 0.00 0.01 0.01 88 1022.6
20260502054516 59 135 0.9 3.5 0.00 0.01 0.01 87 1022.7
20260502053516 59 113 1.7 2.6 0.01 0.01 0.01 87 1022.6
20260502052516 59 113 1.7 2.6 0.01 0.01 0.01 88 1022.5
20260502051536 59 113 3.5 7.0 0.01 0.01 0.01 87 1022.6
20260502050516 59 90 0.9 3.5 0.01 0.01 0.01 88 1022.6
20260502045517 59 113 1.7 3.5 0.01 0.01 0.01 89 1022.5
20260502044538 59 45 0.9 1.7 0.01 0.01 0.01 88 1022.6
20260502043518 59 90 1.7 3.5 0.00 0.00 0.00 87 1022.5
20260502042518 59 68 0.9 2.6 0.00 0.00 0.00 87 1022.5
20260502041518 59 90 0.9 2.6 0.00 0.00 0.00 87 1022.4
20260502040518 59 45 2.6 5.2 0.00 0.00 0.00 85 1022.3
20260502035518 59 68 2.6 4.3 0.00 0.00 0.00 83 1022.4
20260502034518 60 45 3.5 6.1 0.00 0.00 0.00 82 1022.5
20260502033518 60 45 1.7 3.5 0.00 0.00 0.00 81 1022.4
20260502032518 60 45 3.5 5.2 0.00 0.00 0.00 82 1022.5
20260502031518 60 45 1.7 3.5 0.00 0.00 0.00 82 1022.5
20260502030518 60 45 0.9 3.5 0.00 0.00 0.00 83 1022.5
20260502025518 60 113 0.9 2.6 0.00 0.00 0.00 83 1022.5
20260502024517 60 45 2.6 3.5 0.00 0.00 0.00 83 1022.5
20260502023518 60 45 3.5 5.2 0.00 0.00 0.00 83 1022.6
20260502022518 60 45 2.6 5.2 0.00 0.00 0.00 83 1022.6
20260502021518 60 45 3.5 7.0 0.00 0.00 0.00 83 1022.8
20260502020538 60 45 2.6 5.2 0.00 0.00 0.00 83 1022.8
20260502015519 60 135 2.6 5.2 0.00 0.00 0.00 84 1023.0
20260502014518 60 135 2.6 4.3 0.00 0.00 0.00 84 1023.0
20260502013518 61 135 2.6 4.3 0.00 0.00 0.00 84 1023.0
20260502012518 61 180 2.6 6.1 0.00 0.00 0.00 82 1023.2
20260502011518 61 135 0.9 2.6 0.00 0.00 0.00 81 1023.2
20260502010558 61 0.0 1.7 0.00 0.00 0.00 81 1023.2
20260502005518 61 135 1.7 3.5 0.00 0.00 0.00 81 1023.2
20260502004517 61 135 1.7 3.5 0.00 0.00 0.00 82 1023.1
20260502003517 61 113 2.6 5.2 0.00 0.00 0.00 82 1023.3
20260502002518 60 113 2.6 3.5 0.00 0.00 0.00 83 1023.4
20260502001518 60 135 1.7 5.2 0.00 0.00 0.00 83 1023.8
20260502000518 60 158 2.6 4.3 0.00 0.00 0.00 84 1024.0
20260501235517 60 158 1.7 3.5 0.00 0.00 0.00 84 1024.1
20260501234536 60 135 2.6 5.2 0.00 0.00 0.00 84 1024.1
20260501233516 59 113 1.7 5.2 0.00 0.00 0.00 84 1024.1
20260501232516 59 45 1.7 4.3 0.00 0.00 0.00 85 1024.2
20260501231516 59 113 0.9 2.6 0.00 0.00 0.00 85 1024.1
20260501230516 59 293 0.9 1.7 0.00 0.00 0.00 85 1024.0
20260501225518 59 293 0.9 2.6 0.00 0.00 0.00 83 1024.2
20260501224519 59 0.0 0.9 0.00 0.00 0.00 83 1024.1
20260501223518 59 225 0.9 1.7 0.00 0.00 0.00 83 1024.1
20260501222519 60 0.0 0.9 0.00 0.00 0.00 82 1024.0
20260501221539 59 225 0.9 1.7 0.00 0.00 0.00 83 1024.0
20260501220519 60 135 1.7 3.5 0.00 0.00 0.00 83 1024.0
20260501215518 60 203 0.9 1.7 0.00 0.00 0.00 82 1023.9
20260501214518 60 203 0.9 2.6 0.00 0.00 0.00 81 1024.0
20260501213539 60 180 2.6 4.3 0.00 0.00 0.00 81 1024.0
20260501212518 60 158 3.5 5.2 0.00 0.00 0.00 81 1024.0
20260501211518 61 135 1.7 4.3 0.00 0.00 0.00 81 1024.0
20260501210538 61 135 2.6 5.2 0.00 0.00 0.00 81 1024.0
20260501205517 61 135 3.5 7.0 0.00 0.00 0.00 81 1024.0
20260501204518 61 135 4.3 8.7 0.00 0.00 0.00 81 1024.0
20260501203518 61 158 3.5 7.0 0.00 0.00 0.00 80 1024.0
20260501202518 61 135 5.2 10.4 0.00 0.00 0.00 80 1023.9
20260501201518 61 135 6.1 9.6 0.00 0.00 0.00 80 1023.7
20260501200538 62 135 5.2 10.4 0.00 0.00 0.00 79 1023.6
20260501195538 62 135 6.1 11.3 0.00 0.00 0.00 78 1023.6
20260501194538 62 135 4.3 8.7 0.00 0.00 0.00 77 1023.4
20260501193518 62 135 8.7 13.0 0.00 0.00 0.00 76 1023.1
20260501192517 63 135 7.0 11.3 0.00 0.00 0.00 74 1023.1
20260501191539 63 158 6.1 10.4 0.00 0.00 0.00 72 1022.7
20260501190518 63 135 6.1 8.7 0.00 0.00 0.00 70 1022.6
20260501185518 64 135 7.0 10.4 0.00 0.00 0.00 69 1022.5
20260501184518 64 158 4.3 7.8 0.00 0.00 0.00 68 1022.2
20260501183517 65 135 4.3 7.0 0.00 0.00 0.00 67 1022.1
20260501182518 65 135 5.2 10.4 0.00 0.00 0.00 66 1022.1
20260501181517 65 180 6.1 8.7 0.00 0.00 0.00 65 1021.9
20260501180517 65 158 4.3 7.0 0.00 0.00 0.00 64 1021.6
20260501175518 66 135 6.1 9.6 0.00 0.00 0.00 64 1021.5
20260501174517 66 158 6.1 11.3 0.00 0.00 0.00 64 1021.4
20260501173518 66 135 4.3 8.7 0.00 0.00 0.00 63 1021.3
20260501172518 67 135 5.2 8.7 0.00 0.00 0.00 63 1021.3
20260501171518 67 135 5.2 8.7 0.00 0.00 0.00 63 1021.3
20260501170517 67 135 6.1 11.3 0.00 0.00 0.00 62 1021.2
20260501165517 68 135 6.1 10.4 0.00 0.00 0.00 62 1021.3
20260501164518 68 135 7.0 10.4 0.00 0.00 0.00 61 1021.2
20260501163517 68 135 5.2 9.6 0.00 0.00 0.00 60 1021.2
20260501162518 69 135 4.3 9.6 0.00 0.00 0.00 59 1021.1
20260501161518 69 90 7.0 12.2 0.00 0.00 0.00 59 1021.1